Time,TemperatureF,DewpointF,PressureIn,WindDirection,WindDirectionDegrees,WindSpeedMPH,WindSpeedGustMPH,Humidity,HourlyPrecipIn,Conditions,Clouds,dailyrainin,SoftwareType,DateUTC
2013-03-05 00:01:00,33.0,29.0,30.02,WNW,286,3.0,9.0,85,0.00,,,0.00,,2013-03-05 06:01:00,
2013-03-05 00:11:00,33.0,29.0,30.02,WNW,286,3.0,9.0,85,0.00,,,0.00,,2013-03-05 06:11:00,
2013-03-05 00:22:00,33.0,29.0,30.01,West,280,3.0,7.0,86,0.00,,,0.00,,2013-03-05 06:22:00,
2013-03-05 00:32:00,33.0,27.0,30.00,WNW,288,4.0,9.0,79,0.00,,,0.00,,2013-03-05 06:32:00,
2013-03-05 00:42:00,33.0,27.0,30.00,WNW,288,4.0,9.0,79,0.00,,,0.00,,2013-03-05 06:42:00,
2013-03-05 00:52:00,33.0,24.0,30.01,North,353,5.0,9.0,69,0.00,,,0.00,,2013-03-05 06:52:00,
2013-03-05 01:01:00,32.0,21.0,30.02,NW,307,5.0,10.0,63,0.00,,,0.00,,2013-03-05 07:01:00,
2013-03-05 01:11:00,32.0,21.0,30.02,NW,307,5.0,10.0,63,0.00,,,0.00,,2013-03-05 07:11:00,
2013-03-05 01:22:00,32.0,20.0,30.02,NNE,24,5.0,17.0,61,0.00,,,0.00,,2013-03-05 07:22:00,
2013-03-05 01:31:00,31.0,20.0,30.03,NNW,343,2.0,10.0,63,0.00,,,0.00,,2013-03-05 07:31:00,
2013-03-05 01:41:00,31.0,20.0,30.03,NNW,343,2.0,10.0,63,0.00,,,0.00,,2013-03-05 07:41:00,
2013-03-05 01:52:00,31.0,20.0,30.04,WNW,289,5.0,10.0,63,0.00,,,0.00,,2013-03-05 07:52:00,
2013-03-05 02:02:00,30.0,19.0,30.05,WNW,285,4.0,12.0,64,0.00,,,0.00,,2013-03-05 08:02:00,
2013-03-05 02:11:00,30.0,19.0,30.05,WNW,285,4.0,12.0,64,0.00,,,0.00,,2013-03-05 08:11:00,
2013-03-05 02:21:00,30.0,20.0,30.05,NNW,338,2.0,9.0,67,0.00,,,0.00,,2013-03-05 08:21:00,
2013-03-05 02:31:00,29.0,19.0,30.05,NNW,343,3.0,9.0,67,0.00,,,0.00,,2013-03-05 08:31:00,
2013-03-05 02:41:00,29.0,19.0,30.05,NNW,343,3.0,9.0,67,0.00,,,0.00,,2013-03-05 08:41:00,
2013-03-05 02:52:00,29.0,19.0,30.05,NNW,330,5.0,11.0,66,0.00,,,0.00,,2013-03-05 08:52:00,
2013-03-05 03:01:00,29.0,19.0,30.04,WNW,287,3.0,13.0,67,0.00,,,0.00,,2013-03-05 09:01:00,
2013-03-05 03:11:00,29.0,19.0,30.04,WNW,287,3.0,13.0,67,0.00,,,0.00,,2013-03-05 09:11:00,
2013-03-05 03:21:00,29.0,20.0,30.05,West,281,4.0,10.0,68,0.00,,,0.00,,2013-03-05 09:21:00,
2013-03-05 03:31:00,28.0,18.0,30.05,NW,304,9.0,15.0,67,0.00,,,0.00,,2013-03-05 09:31:00,
2013-03-05 03:42:00,28.0,18.0,30.05,NW,304,9.0,15.0,67,0.00,,,0.00,,2013-03-05 09:42:00,
2013-03-05 03:52:00,28.0,18.0,30.05,West,281,4.0,11.0,67,0.00,,,0.00,,2013-03-05 09:52:00,
2013-03-05 04:01:00,28.0,19.0,30.05,WNW,287,5.0,12.0,69,0.00,,,0.00,,2013-03-05 10:01:00,
2013-03-05 04:11:00,28.0,19.0,30.05,WNW,287,5.0,12.0,69,0.00,,,0.00,,2013-03-05 10:11:00,
2013-03-05 04:21:00,27.0,19.0,30.05,WNW,288,2.0,9.0,71,0.00,,,0.00,,2013-03-05 10:21:00,
2013-03-05 04:32:00,27.0,18.0,30.06,NNW,340,5.0,13.0,68,0.00,,,0.00,,2013-03-05 10:32:00,
2013-03-05 04:42:00,27.0,18.0,30.06,NNW,340,5.0,13.0,68,0.00,,,0.00,,2013-03-05 10:42:00,
2013-03-05 04:52:00,27.0,17.0,30.06,WNW,293,5.0,9.0,65,0.00,,,0.00,,2013-03-05 10:52:00,
2013-03-05 05:01:00,26.0,17.0,30.07,WNW,283,3.0,10.0,67,0.00,,,0.00,,2013-03-05 11:01:00,
2013-03-05 05:11:00,26.0,17.0,30.07,WNW,283,3.0,10.0,67,0.00,,,0.00,,2013-03-05 11:11:00,
2013-03-05 05:22:00,25.0,16.0,30.07,West,278,6.0,11.0,67,0.00,,,0.00,,2013-03-05 11:22:00,
2013-03-05 05:32:00,25.0,16.0,30.07,NNW,338,4.0,9.0,68,0.00,,,0.00,,2013-03-05 11:32:00,
2013-03-05 05:42:00,25.0,16.0,30.07,NNW,338,4.0,9.0,68,0.00,,,0.00,,2013-03-05 11:42:00,
2013-03-05 05:52:00,25.0,16.0,30.08,WNW,290,4.0,13.0,68,0.00,,,0.00,,2013-03-05 11:52:00,
2013-03-05 06:02:00,25.0,16.0,30.08,West,273,4.0,13.0,68,0.00,,,0.00,,2013-03-05 12:02:00,
2013-03-05 06:12:00,25.0,16.0,30.08,West,273,4.0,13.0,68,0.00,,,0.00,,2013-03-05 12:12:00,
2013-03-05 06:22:00,25.0,16.0,30.08,WNW,284,5.0,9.0,68,0.00,,,0.00,,2013-03-05 12:22:00,
2013-03-05 06:32:00,25.0,16.0,30.08,WNW,290,4.0,13.0,68,0.00,,,0.00,,2013-03-05 12:32:00,
2013-03-05 06:42:00,25.0,16.0,30.08,WNW,290,4.0,13.0,68,0.00,,,0.00,,2013-03-05 12:42:00,
2013-03-05 06:52:00,26.0,17.0,30.08,WNW,284,4.0,9.0,69,0.00,,,0.00,,2013-03-05 12:52:00,
2013-03-05 07:02:00,26.0,17.0,30.08,WNW,288,5.0,11.0,69,0.00,,,0.00,,2013-03-05 13:02:00,
2013-03-05 07:11:00,26.0,17.0,30.08,WNW,288,5.0,11.0,69,0.00,,,0.00,,2013-03-05 13:11:00,
2013-03-05 07:21:00,26.0,18.0,30.08,WNW,289,3.0,9.0,70,0.00,,,0.00,,2013-03-05 13:21:00,
2013-03-05 07:32:00,26.0,18.0,30.08,NW,323,5.0,12.0,71,0.00,,,0.00,,2013-03-05 13:32:00,
2013-03-05 07:42:00,26.0,18.0,30.08,NW,323,5.0,12.0,71,0.00,,,0.00,,2013-03-05 13:42:00,
2013-03-05 07:52:00,27.0,19.0,30.09,NW,318,5.0,12.0,71,0.00,,,0.00,,2013-03-05 13:52:00,
2013-03-05 08:02:00,27.0,19.0,30.09,WNW,295,3.0,14.0,72,0.00,,,0.00,,2013-03-05 14:02:00,
2013-03-05 08:11:00,27.0,19.0,30.09,WNW,295,3.0,14.0,72,0.00,,,0.00,,2013-03-05 14:11:00,
2013-03-05 08:21:00,27.0,19.0,30.09,SW,228,7.0,17.0,72,0.00,,,0.00,,2013-03-05 14:21:00,
2013-03-05 08:32:00,27.0,20.0,30.09,WNW,291,6.0,19.0,73,0.00,,,0.00,,2013-03-05 14:32:00,
2013-03-05 08:42:00,27.0,20.0,30.09,WNW,291,6.0,19.0,73,0.00,,,0.00,,2013-03-05 14:42:00,
2013-03-05 08:52:00,27.0,19.0,30.10,West,262,10.0,20.0,72,0.00,,,0.00,,2013-03-05 14:52:00,
2013-03-05 09:01:00,28.0,20.0,30.10,WNW,285,7.0,23.0,72,0.00,,,0.00,,2013-03-05 15:01:00,
2013-03-05 09:11:00,28.0,20.0,30.10,WNW,285,7.0,23.0,72,0.00,,,0.00,,2013-03-05 15:11:00,
2013-03-05 09:21:00,28.0,20.0,30.10,WNW,296,8.0,15.0,72,0.00,,,0.00,,2013-03-05 15:21:00,
2013-03-05 09:32:00,29.0,21.0,30.10,North,10,4.0,16.0,72,0.00,,,0.00,,2013-03-05 15:32:00,
2013-03-05 09:42:00,29.0,21.0,30.10,North,10,4.0,16.0,72,0.00,,,0.00,,2013-03-05 15:42:00,
2013-03-05 09:52:00,29.0,21.0,30.11,WSW,243,5.0,17.0,71,0.00,,,0.00,,2013-03-05 15:52:00,
2013-03-05 10:01:00,29.0,21.0,30.11,WSW,243,6.0,17.0,71,0.00,,,0.00,,2013-03-05 16:01:00,
2013-03-05 10:11:00,29.0,21.0,30.11,WSW,243,6.0,17.0,71,0.00,,,0.00,,2013-03-05 16:11:00,
2013-03-05 10:21:00,29.0,21.0,30.12,West,268,4.0,15.0,72,0.00,,,0.00,,2013-03-05 16:21:00,
2013-03-05 10:32:00,29.0,21.0,30.12,North,349,5.0,14.0,72,0.00,,,0.00,,2013-03-05 16:32:00,
2013-03-05 10:42:00,29.0,21.0,30.12,North,349,5.0,14.0,72,0.00,,,0.00,,2013-03-05 16:42:00,
2013-03-05 10:52:00,29.0,21.0,30.12,East,85,7.0,17.0,72,0.00,,,0.00,,2013-03-05 16:52:00,
2013-03-05 11:01:00,29.0,21.0,30.13,North,359,7.0,15.0,73,0.00,,,0.00,,2013-03-05 17:01:00,
2013-03-05 11:11:00,29.0,21.0,30.13,North,359,7.0,15.0,73,0.00,,,0.00,,2013-03-05 17:11:00,
2013-03-05 11:21:00,29.0,21.0,30.14,WNW,298,7.0,16.0,73,0.00,,,0.00,,2013-03-05 17:21:00,
2013-03-05 11:32:00,29.0,21.0,30.14,West,276,6.0,15.0,73,0.00,,,0.00,,2013-03-05 17:32:00,
2013-03-05 11:42:00,29.0,21.0,30.14,West,276,6.0,15.0,73,0.00,,,0.00,,2013-03-05 17:42:00,
2013-03-05 11:52:00,29.0,21.0,30.14,NW,315,9.0,19.0,72,0.00,,,0.00,,2013-03-05 17:52:00,
2013-03-05 12:01:00,29.0,21.0,30.15,NW,325,6.0,16.0,73,0.00,,,0.00,,2013-03-05 18:01:00,
2013-03-05 12:11:00,29.0,21.0,30.15,NW,325,6.0,16.0,73,0.00,,,0.00,,2013-03-05 18:11:00,
2013-03-05 12:22:00,29.0,21.0,30.15,NW,324,8.0,24.0,72,0.00,,,0.00,,2013-03-05 18:22:00,
2013-03-05 12:32:00,29.0,21.0,30.16,North,359,7.0,17.0,71,0.00,,,0.00,,2013-03-05 18:32:00,
2013-03-05 12:42:00,29.0,21.0,30.16,North,359,7.0,17.0,71,0.00,,,0.00,,2013-03-05 18:42:00,
2013-03-05 12:53:00,29.0,21.0,30.17,NNW,329,6.0,22.0,71,0.00,,,0.00,,2013-03-05 18:53:00,
2013-03-05 13:01:00,29.0,20.0,30.17,NNW,335,9.0,16.0,70,0.00,,,0.00,,2013-03-05 19:01:00,
2013-03-05 13:11:00,29.0,20.0,30.17,NNW,335,9.0,16.0,70,0.00,,,0.00,,2013-03-05 19:11:00,
2013-03-05 13:21:00,29.0,21.0,30.18,NNW,335,6.0,17.0,71,0.00,,,0.00,,2013-03-05 19:21:00,
2013-03-05 13:32:00,29.0,20.0,30.18,WNW,285,6.0,14.0,70,0.00,,,0.00,,2013-03-05 19:32:00,
2013-03-05 13:42:00,29.0,20.0,30.18,WNW,285,6.0,14.0,70,0.00,,,0.00,,2013-03-05 19:42:00,
2013-03-05 13:52:00,30.0,22.0,30.19,NNW,329,3.0,14.0,72,0.00,,,0.00,,2013-03-05 19:52:00,
2013-03-05 14:01:00,29.0,21.0,30.19,North,356,5.0,17.0,71,0.00,,,0.00,,2013-03-05 20:01:00,
2013-03-05 14:11:00,29.0,21.0,30.20,North,358,5.0,13.0,71,0.00,,,0.00,,2013-03-05 20:11:00,
2013-03-05 14:21:00,29.0,21.0,30.20,North,358,5.0,13.0,71,0.00,,,0.00,,2013-03-05 20:21:00,
2013-03-05 14:32:00,29.0,21.0,30.20,NNE,20,6.0,11.0,71,0.00,,,0.00,,2013-03-05 20:32:00,
2013-03-05 14:42:00,29.0,21.0,30.20,NNE,20,6.0,11.0,71,0.00,,,0.00,,2013-03-05 20:42:00,
2013-03-05 14:52:00,29.0,20.0,30.20,NW,308,10.0,23.0,70,0.00,,,0.00,,2013-03-05 20:52:00,
2013-03-05 15:02:00,29.0,20.0,30.21,WNW,295,7.0,17.0,69,0.00,,,0.00,,2013-03-05 21:02:00,
2013-03-05 15:11:00,29.0,20.0,30.21,WNW,295,7.0,17.0,69,0.00,,,0.00,,2013-03-05 21:11:00,
2013-03-05 15:21:00,29.0,20.0,30.22,WNW,293,7.0,15.0,69,0.00,,,0.00,,2013-03-05 21:21:00,
2013-03-05 15:31:00,29.0,20.0,30.23,WNW,292,4.0,12.0,69,0.00,,,0.00,,2013-03-05 21:31:00,
2013-03-05 15:42:00,29.0,20.0,30.23,WNW,292,4.0,12.0,69,0.00,,,0.00,,2013-03-05 21:42:00,
2013-03-05 15:52:00,29.0,19.0,30.23,NNW,329,8.0,16.0,67,0.00,,,0.00,,2013-03-05 21:52:00,
2013-03-05 16:01:00,29.0,20.0,30.24,NNW,345,6.0,15.0,69,0.00,,,0.00,,2013-03-05 22:01:00,
2013-03-05 16:11:00,29.0,20.0,30.24,NNW,345,6.0,15.0,69,0.00,,,0.00,,2013-03-05 22:11:00,
2013-03-05 16:22:00,29.0,20.0,30.25,NNE,27,6.0,13.0,68,0.00,,,0.00,,2013-03-05 22:22:00,
2013-03-05 16:32:00,29.0,20.0,30.25,North,351,6.0,13.0,70,0.00,,,0.00,,2013-03-05 22:32:00,
2013-03-05 16:42:00,29.0,20.0,30.25,North,351,6.0,13.0,70,0.00,,,0.00,,2013-03-05 22:42:00,
2013-03-05 16:52:00,29.0,20.0,30.25,WNW,288,6.0,13.0,69,0.00,,,0.00,,2013-03-05 22:52:00,
2013-03-05 17:01:00,29.0,20.0,30.25,WNW,290,6.0,15.0,68,0.00,,,0.00,,2013-03-05 23:01:00,
2013-03-05 17:11:00,29.0,20.0,30.25,WNW,290,6.0,15.0,68,0.00,,,0.00,,2013-03-05 23:11:00,
2013-03-05 17:21:00,29.0,20.0,30.25,WNW,290,6.0,15.0,68,0.00,,,0.00,,2013-03-05 23:21:00,
2013-03-05 17:32:00,29.0,20.0,30.25,WNW,290,6.0,15.0,68,0.00,,,0.00,,2013-03-05 23:32:00,
2013-03-05 17:42:00,29.0,20.0,30.25,WNW,290,6.0,15.0,68,0.00,,,0.00,,2013-03-05 23:42:00,
2013-03-05 21:32:00,25.0,18.0,30.34,NW,313,4.0,7.0,74,0.00,,,0.00,,2013-03-06 03:32:00,
2013-03-05 21:42:00,25.0,18.0,30.34,NW,313,4.0,7.0,74,0.00,,,0.00,,2013-03-06 03:42:00,
2013-03-05 21:52:00,25.0,18.0,30.35,NNW,330,4.0,11.0,75,0.00,,,0.00,,2013-03-06 03:52:00,
2013-03-05 22:02:00,25.0,18.0,30.36,NW,326,3.0,10.0,74,0.00,,,0.00,,2013-03-06 04:02:00,
2013-03-05 22:11:00,25.0,18.0,30.36,NW,326,3.0,10.0,74,0.00,,,0.00,,2013-03-06 04:11:00,
2013-03-05 22:21:00,25.0,18.0,30.35,NW,311,3.0,10.0,74,0.00,,,0.00,,2013-03-06 04:21:00,
2013-03-05 22:32:00,25.0,18.0,30.36,NW,319,2.0,9.0,75,0.00,,,0.00,,2013-03-06 04:32:00,
2013-03-05 22:41:00,25.0,18.0,30.36,NW,319,2.0,9.0,75,0.00,,,0.00,,2013-03-06 04:41:00,
2013-03-05 22:52:00,25.0,18.0,30.36,NNW,345,2.0,7.0,75,0.00,,,0.00,,2013-03-06 04:52:00,
2013-03-05 23:01:00,24.0,18.0,30.37,NNW,334,3.0,7.0,76,0.00,,,0.00,,2013-03-06 05:01:00,
2013-03-05 23:11:00,24.0,18.0,30.37,NNW,334,3.0,7.0,76,0.00,,,0.00,,2013-03-06 05:11:00,
2013-03-05 23:22:00,24.0,18.0,30.37,North,357,4.0,6.0,77,0.00,,,0.00,,2013-03-06 05:22:00,
2013-03-05 23:32:00,24.0,17.0,30.37,NNE,27,4.0,11.0,75,0.00,,,0.00,,2013-03-06 05:32:00,
2013-03-05 23:42:00,24.0,17.0,30.37,NNE,27,4.0,11.0,75,0.00,,,0.00,,2013-03-06 05:42:00,
2013-03-05 23:52:00,24.0,17.0,30.38,NW,319,3.0,7.0,75,0.00,,,0.00,,2013-03-06 05:52:00,